[2024-12-20 00:00:00, 2024-12-20 23:59:59] previous next
| time | temperature | air pressure | humidity | solar radiation | wind speed |
|---|---|---|---|---|---|
| 2024-12-20 08:30:42 | 2.8 | 1012.4 | 98.0 | 0.0 | 0.0 |
| 2024-12-20 08:53:02 | 2.9 | 1012.7 | 99.0 | 16.7 | 1.3 |
| 2024-12-20 09:13:00 | 3.5 | 1012.7 | 98.0 | 20.9 | 0.4 |
| 2024-12-20 09:33:01 | 3.9 | 1013.4 | 97.0 | 23.6 | 1.5 |
| 2024-12-20 09:53:00 | 4.5 | 1013.1 | 96.0 | 25.3 | 1.8 |
| 2024-12-20 10:13:00 | 4.8 | 1013.1 | 95.0 | 26.7 | 3.1 |
| 2024-12-20 10:33:00 | 5.1 | 1013.1 | 94.0 | 30.0 | 1.7 |
| 2024-12-20 10:53:00 | 5.6 | 1013.4 | 93.0 | 33.0 | 2.8 |
| 2024-12-20 11:12:59 | 5.8 | 1013.1 | 93.0 | 67.0 | 4.8 |
| 2024-12-20 11:33:01 | 6.2 | 1013.1 | 92.0 | 103.1 | 2.1 |
| 2024-12-20 11:53:00 | 6.6 | 1013.1 | 91.0 | 143.3 | 1.4 |
| 2024-12-20 12:13:02 | 6.7 | 1013.1 | 90.0 | 85.7 | 2.5 |
| 2024-12-20 12:33:01 | 6.4 | 1012.7 | 89.0 | 59.6 | 0.1 |
| 2024-12-20 12:53:00 | 6.1 | 1012.7 | 89.0 | 51.7 | 2.7 |
| 2024-12-20 13:15:08 | 6.1 | 1012.7 | 90.0 | 70.5 | 2.9 |
| 2024-12-20 13:35:08 | 6.3 | 1012.4 | 89.0 | 83.5 | 1.5 |
| 2024-12-20 13:55:08 | 6.3 | 1012.4 | 89.0 | 53.1 | 1.0 |
| 2024-12-20 14:15:08 | 6.2 | 1012.0 | 90.0 | 56.2 | 1.1 |
| 2024-12-20 14:35:07 | 6.3 | 1012.0 | 89.0 | 70.1 | 1.8 |
CSV export: /station/IWELLEN5/data?period=20241220T000000/20241220T235959&format=csv&tz=GMT